ボーエル-スキッフ彗星

140P/Bowell-Skiff (1999)

English version
Home page
Updated on May 5, 2012

---------------------------------------------------------------------

・ プロフィール

符号 140P/1998 X2
再発見日 1998年12月14日
再発見光度 18.8等
再発見者 G. V. Williams, Lincoln Laboratory Near-Earth Asteroid Research project

・ 写真集

・ 軌道要素

Epoch 1999 May 22.0 TT = JDT 2451320.5
T 1999 May 14.81131 TT                                  MPC
q   1.9718777            (2000.0)            P               Q
n   0.06091360     Peri.  173.09491     -0.91743568     -0.39742734
a   6.3972482      Node   343.44807     +0.36177738     -0.81328396
e   0.6917616      Incl.    3.83623     +0.16561675     -0.42499495
P  16.2
From 121 observations 1983 Mar. 9-1999 May 8, mean residual 0".9.

・ 星図

・ 光度変化

        m1 = 7.4 + 5 logΔ + 23 log r

---------------------------------------------------------------------

軌道要素はM.P.E.C. 2012-J16に掲載されたものです。
星図は StellaNavigator Ver.2.0 for Windows (アストロアーツ編著 / アスキー出版局刊) で作成したものです。
光度グラフはComet for Windowsで作成したものです。

---------------------------------------------------------------------

Copyright(C) Seiichi Yoshida (comet@aerith.net). All rights reserved.